Chehalis, WA
on Sunday, February 24, 2013

Sunday
Previous Day Next Day
Daily Summary
 ActualAverage (KOLM)Record (KOLM)
Temperature
Mean Temperature °F 42°F  
Max Temperature 48°F 51°F 65°F (2005)
Min Temperature 37°F 33°F 15°F (1962)
Degree Days
Heating Degree Days 22 23  
Month to date heating degree days 575  
Since 1 July heating degree days 3626  
Cooling Degree Days 0 0  
Month to date cooling degree days 0  
Year to date cooling degree days 0  
Moisture
Dew Point 36°F   
Average Humidity 76    
Maximum Humidity 93    
Minimum Humidity 62    
Precipitation
Precipitation 0.00 in 0.17 in 1.98 in (1999)
Month to date precipitation 4.55  
Year to date precipitation 12.39  
Wind
Wind Speed 8 mph   
Max Wind Speed 18 mph   
Max Gust Speed 24 mph   
Visibility 9 miles   
Events Rain   

Key: T is trace of precipitation, MM is missing value
Source: NWS Daily Summary
Time(PST)TemperatureDew PointHumidity Pressure Visibility Wind DirectionWind SpeedGust SpeedPrecipitationEvents Conditions
12:15 AM 37.4°F 35.6°F 93% 30.43 in 10.0 miles SSW 4.6 mph - N/A   Overcast
12:35 AM 37.4°F 35.6°F 93% 30.43 in 10.0 miles South 4.6 mph - N/A   Overcast
12:55 AM 39.2°F 35.6°F 87% 30.43 in 10.0 miles South 4.6 mph - N/A   Overcast
1:15 AM 39.2°F 35.6°F 87% 30.42 in 10.0 miles South 5.8 mph - N/A   Overcast
1:35 AM 39.2°F 35.6°F 87% 30.43 in 10.0 miles South 4.6 mph - N/A   Overcast
1:55 AM 39.2°F 35.6°F 87% 30.43 in 10.0 miles South 3.5 mph - N/A   Overcast
2:15 AM 39.2°F 35.6°F 87% 30.42 in 10.0 miles South 5.8 mph - N/A   Overcast
2:35 AM 39.2°F 35.6°F 87% 30.42 in 10.0 miles South 6.9 mph - N/A   Overcast
2:55 AM 39.2°F 35.6°F 87% 30.42 in 10.0 miles South 5.8 mph - N/A   Overcast
3:15 AM 39.2°F 35.6°F 87% 30.42 in 10.0 miles SSW 4.6 mph - N/A   Overcast
3:35 AM 39.2°F 35.6°F 87% 30.41 in 10.0 miles South 5.8 mph - N/A   Overcast
3:55 AM 39.2°F 35.6°F 87% 30.41 in 10.0 miles South 6.9 mph - N/A   Overcast
4:15 AM 39.2°F 35.6°F 87% 30.41 in 10.0 miles South 8.1 mph - N/A   Overcast
4:35 AM 39.2°F 35.6°F 87% 30.41 in 10.0 miles South 8.1 mph - N/A   Overcast
4:55 AM 39.2°F 35.6°F 87% 30.41 in 10.0 miles South 6.9 mph - N/A   Overcast
5:15 AM 39.2°F 35.6°F 87% 30.40 in 10.0 miles South 8.1 mph - N/A   Overcast
5:35 AM 39.2°F 35.6°F 87% 30.40 in 10.0 miles South 6.9 mph - N/A   Overcast
5:55 AM 39.2°F 35.6°F 87% 30.40 in 10.0 miles South 6.9 mph - N/A   Overcast
6:15 AM 39.2°F 35.6°F 87% 30.39 in 10.0 miles South 8.1 mph - N/A   Overcast
6:35 AM 39.2°F 35.6°F 87% 30.39 in 10.0 miles SSW 5.8 mph - N/A   Overcast
6:55 AM 39.2°F 35.6°F 87% 30.39 in 10.0 miles South 6.9 mph - N/A   Overcast
7:15 AM 39.2°F 35.6°F 87% 30.38 in 10.0 miles SSE 8.1 mph - N/A   Overcast
7:35 AM 39.2°F 35.6°F 87% 30.38 in 10.0 miles South 8.1 mph - N/A   Overcast
7:55 AM 39.2°F 35.6°F 87% 30.39 in 10.0 miles South 8.1 mph - N/A   Overcast
8:15 AM 39.2°F 35.6°F 87% 30.38 in 9.0 miles South 9.2 mph - N/A   Overcast
8:35 AM 41.0°F 35.6°F 81% 30.38 in 10.0 miles South 8.1 mph - N/A   Overcast
8:55 AM 41.0°F 35.6°F 81% 30.38 in 10.0 miles South 9.2 mph - N/A   Overcast
9:15 AM 41.0°F 35.6°F 81% 30.38 in 10.0 miles South 11.5 mph 16.1 mph N/A Rain Light Rain
9:35 AM 41.0°F 35.6°F 81% 30.37 in 9.0 miles South 10.4 mph 16.1 mph N/A   Mostly Cloudy
9:55 AM 41.0°F 37.4°F 87% 30.37 in 10.0 miles South 10.4 mph 19.6 mph N/A   Mostly Cloudy
10:15 AM 42.8°F 37.4°F 81% 30.37 in 10.0 miles South 11.5 mph 16.1 mph N/A   Mostly Cloudy
10:35 AM 44.6°F 37.4°F 76% 30.36 in 10.0 miles South 12.7 mph 21.9 mph N/A   Overcast
10:55 AM 44.6°F 37.4°F 76% 30.35 in 9.0 miles South 16.1 mph 23.0 mph N/A   Overcast
11:15 AM 44.6°F 37.4°F 76% 30.35 in 10.0 miles SSE 16.1 mph 23.0 mph N/A   Mostly Cloudy
11:35 AM 44.6°F 37.4°F 76% 30.34 in 9.0 miles SSE 16.1 mph 21.9 mph N/A   Scattered Clouds
11:55 AM 46.4°F 37.4°F 71% 30.34 in 8.0 miles South 15.0 mph 21.9 mph N/A   Scattered Clouds
12:15 PM 46.4°F 37.4°F 71% 30.33 in 10.0 miles South 18.4 mph 24.2 mph N/A   Mostly Cloudy
12:35 PM 46.4°F 37.4°F 71% 30.32 in 10.0 miles South 17.3 mph 20.7 mph N/A   Partly Cloudy
12:55 PM 46.4°F 37.4°F 71% 30.31 in 10.0 miles SSE 16.1 mph 21.9 mph N/A   Partly Cloudy
1:15 PM 48.2°F 37.4°F 66% 30.30 in 5.0 miles SSE 13.8 mph 20.7 mph N/A   Haze
1:35 PM 48.2°F 37.4°F 66% 30.29 in 6.0 miles South 13.8 mph 20.7 mph N/A   Haze
1:55 PM 48.2°F 37.4°F 66% 30.28 in 5.0 miles South 12.7 mph 20.7 mph N/A   Haze
2:15 PM 48.2°F 37.4°F 66% 30.27 in 5.0 miles South 16.1 mph 19.6 mph N/A   Haze
2:35 PM 48.2°F 37.4°F 66% 30.27 in 10.0 miles South 10.4 mph 18.4 mph N/A   Mostly Cloudy
2:55 PM 48.2°F 35.6°F 62% 30.26 in 5.0 miles South 15.0 mph 20.7 mph N/A   Haze
3:15 PM 48.2°F 35.6°F 62% 30.25 in 5.0 miles South 12.7 mph 17.3 mph N/A   Haze
3:35 PM 48.2°F 35.6°F 62% 30.25 in 5.0 miles South 12.7 mph 19.6 mph N/A   Haze
3:55 PM 48.2°F 35.6°F 62% 30.24 in 5.0 miles South 15.0 mph 21.9 mph N/A   Haze
4:15 PM 48.2°F 35.6°F 62% 30.23 in 5.0 miles South 13.8 mph - N/A   Haze
4:35 PM 48.2°F 35.6°F 62% 30.22 in 5.0 miles South 11.5 mph 18.4 mph N/A   Haze
4:55 PM 46.4°F 35.6°F 66% 30.21 in 5.0 miles South 11.5 mph - N/A   Haze
5:15 PM 46.4°F 35.6°F 66% 30.19 in 5.0 miles South 9.2 mph - N/A   Haze
5:35 PM 46.4°F 35.6°F 66% 30.19 in 5.0 miles South 6.9 mph - N/A   Haze
5:55 PM 46.4°F 35.6°F 66% 30.17 in 5.0 miles South 5.8 mph - N/A   Haze
6:15 PM 46.4°F 35.6°F 66% 30.16 in 8.0 miles South 8.1 mph - N/A   Overcast
6:35 PM 46.4°F 35.6°F 66% 30.16 in 10.0 miles South 9.2 mph - N/A   Overcast
6:55 PM 46.4°F 35.6°F 66% 30.14 in 10.0 miles South 9.2 mph - N/A   Overcast
7:15 PM 44.6°F 35.6°F 71% 30.14 in 10.0 miles South 8.1 mph - N/A   Overcast
7:35 PM 44.6°F 35.6°F 71% 30.13 in 10.0 miles SSW 8.1 mph - N/A   Overcast
7:55 PM 44.6°F 35.6°F 71% 30.12 in 7.0 miles SSW 8.1 mph - N/A   Overcast
8:15 PM 44.6°F 35.6°F 71% 30.11 in 6.0 miles SSW 5.8 mph - N/A   Haze
8:35 PM 44.6°F 35.6°F 71% 30.10 in 7.0 miles South 6.9 mph - N/A   Overcast
8:55 PM 44.6°F 33.8°F 66% 30.09 in 9.0 miles SSW 6.9 mph - N/A   Overcast
9:15 PM 44.6°F 33.8°F 66% 30.07 in 10.0 miles SSW 12.7 mph 18.4 mph N/A   Overcast
9:35 PM 44.6°F 33.8°F 66% 30.07 in 9.0 miles South 8.1 mph - N/A   Overcast
9:55 PM 44.6°F 33.8°F 66% 30.05 in 6.0 miles South 10.4 mph - N/A   Haze
10:15 PM 46.4°F 33.8°F 62% 30.03 in 10.0 miles South 9.2 mph 17.3 mph N/A   Overcast
10:35 PM 46.4°F 33.8°F 62% 30.03 in 10.0 miles South 12.7 mph 16.1 mph N/A   Overcast
11:15 PM 44.6°F 33.8°F 66% 30.01 in 7.0 miles SSE 9.2 mph - N/A   Overcast
11:35 PM 46.4°F 35.6°F 66% 30.00 in 7.0 miles South 6.9 mph - N/A   Overcast
11:55 PM 44.6°F 35.6°F 71% 29.99 in 10.0 miles South 10.4 mph - N/A   Overcast
Moon Phase
Feb. 24 Feb. 25 Mar. 04 Mar. 11 Mar. 19
Sunrise:06:59 AM (PST) Moon Rise:05:08 PM (PST)
Sunset:05:50 PM (PST) Moon Set:06:01 AM (PST)

Copyright © 2014 The Weather Underground, Inc.